Regional Weather Roundup
Issued by NWS

Home | Current Version | Previous Version | Graphics & Text | Print | Product List | Glossary On
Versions: 1 2 3 4 5 6 7 8 9 10 11 12 13 14 15 16 17 18 19 20 21 22 23 24 25 26 27 28 29 30 31 32 33 34 35 36 37 38 39 40 41 42 43 44 45 46 47 48 49 50
057
ASUS43 KBIS 260602
RWRND

NORTH DAKOTA REGIONAL WEATHER ROUNDUP
NATIONAL WEATHER SERVICE BISMARCK ND
100 AM CDT MON SEP 26 2016

NOTE: "FAIR" INDICATES FEW OR NO CLOUDS BELOW 12,000 FEET WITH NO
SIGNIFICANT WEATHER AND/OR OBSTRUCTIONS TO VISIBILITY.


NDZ001>003-009>011-017-260700-
NORTHWEST NORTH DAKOTA

CITY           SKY/WX    TMP DP  RH WIND       PRES   REMARKS
WILLISTON      CLEAR     42  33  70 CALM      30.20S
6HR MIN TEMP:  41; 6HR MAX TEMP:  62;

MINOT          CLEAR     50  34  54 W14       30.12S
MINOT AFB      CLEAR     47  35  63 NW14      30.11S
$$

NDZ018>021-031>035-040>046-260700-
SOUTHWEST NORTH DAKOTA

CITY           SKY/WX    TMP DP  RH WIND       PRES   REMARKS
BISMARCK       CLEAR     46  35  65 W8        30.17F
6HR MIN TEMP:  45; 6HR MAX TEMP:  62;

DICKINSON      CLEAR     38  33  82 W7        30.20F
GARRISON         N/A     45  35  68 W8        30.15R
6HR MIN TEMP:  45; 6HR MAX TEMP:  59;

HETTINGER ARPT CLEAR     39  34  82 W3        30.25F
$$

NDZ004>008-012>016-024-026-027-054-260700-
NORTHEAST NORTH DAKOTA

CITY           SKY/WX    TMP DP  RH WIND       PRES   REMARKS
GRAND FORKS    PTCLDY    52  39  61 NW15      29.93F
GRND FRKS AFB  CLEAR     53  37  55 NW15      29.94F
DEVILS LAKE    CLEAR     50  37  61 W17       30.03S
$$

NDZ022-023-025-028>030-036>039-047>053-260700-
SOUTHEAST NORTH DAKOTA

CITY           SKY/WX    TMP DP  RH WIND       PRES   REMARKS
FARGO          PTCLDY    54  37  52 W16G25    29.97S
6HR MIN TEMP:  54; 6HR MAX TEMP:  59; 6HR PCP: TRACE;

JAMESTOWN      CLEAR     48  38  68 W10       30.06F
$$





USA.gov is the U.S. government's official web portal to all federal, state and local government web resources and services.